HULIANWANG DIGUI-182

导读

HULIANWANG DIGUI-182(NORAD 100207)是中国低轨卫星互联网(国网/Guowang)星座的组网卫星之一,由银河航天研制,单星质量约695kg,搭载Ka频段等通信载荷。它随卫星互联网低轨组网批次由长征系列运载火箭发射入轨,当前运行于约1150km高度的近地轨道,主要为全球用户提供宽带通信、互联网接入服务,补齐地面网络覆盖盲区,支撑空天地一体化信息网络建设,服务跨区域数字互联互通需求。(149字)

基本信息
目录编号:
100207
目录名称:
HULIANWANG DIGUI-182
国际标识:
2026-176E
轨道中心:
EARTH
卫星名称:
HULIANWANG DIGUI-182
卫星全名:
HULIANWANG DIGUI-182
卫星状态:
在轨 (已飞行20 天)
发射日期:
2026-08-04 UTC
国别 :
中国 (CN)
星等 :
--
轨道信息
数据来源 国际轨道数据
星历时间: 2026-08-23T20:03:58+0800
1天前
查看轨道信息
半长轴: 7505.836km
偏心率: 0.0007035
轨道倾角: 49.965°
近地点辐角 15.652°
升交点赤经 324.546°
平近点角 344.457°
近地点: 1122.418km
远地点: 1132.98km
周期: 107.859分钟
每日圈数: 13.350706
详细信息
使用方式:
暂无
2D轨道图
3D轨道图
轨道高度分析图
轨道倾角分析图
轨道综合分析图
查看轨道综合分析图